Location: Zagreb
(45.8000°N, 16.0000°E)
Time: 20:04:52
(UTC+01:00)

deb Explorer IX - Pass Details

Date: 07 October 2020
Orbit: 537 x 1106 km, 38.8° (Epoch: 30 October)

Event Time Altitude Azimuth Distance (km) Brightness Sun altitude
Rises 18:57:04 0° 268° (W) 3,256 ? -6.5°
Reaches altitude 10° 19:00:06 10° 255° (WSW) 2,215 ? -7.1°
Maximum altitude 19:04:06 23° 203° (SSW) 1,388 ? -7.8°
Drops below altitude 10° 19:07:42 10° 150° (SSE) 1,961 ? -8.4°
Enters shadow 19:09:51 - 137° (SE) 2,664 ? -8.8°
Sets 19:10:13 0° 136° (SE) 2,793 - -8.8°
